Location: Krakow
(50.0830°N, 19.9170°E)
Time: 05:38:25
(UTC+01:00)

SR - Pass Details

Date: 14 February 2023
Orbit: 582 x 867 km, 66.7° (Epoch: 20 March)

Event Time Altitude Azimuth Distance (km) Brightness Sun altitude
Rises 20:05:24 0° 321° (NW) 2,848 ? -30.6°
Reaches altitude 10° 20:07:41 10° 318° (NW) 1,924 ? -31.0°
Enters shadow 20:09:46 27° 309° (NW) 1,132 ? -31.3°
Maximum altitude 20:11:54 61° 238° (WSW) 665 - -31.6°
Drops below altitude 10° 20:16:05 10° 158° (SSE) 1,907 - -32.2°
Sets 20:18:20 0° 155° (SSE) 2,819 - -32.6°
